TURKSAT 3A

Last updated on Thu Oct 16 2025 00:02:46 GMT+0000 (Coordinated Universal Time)

1 33056U 08030B 25288.63653394 .00000132 00000+0 00000+0 0 9996 2 33056 0.0506 64.9890 0003829 124.4082 106.1929 1.00274696 49904
UTC large
Height (km)
Speed (km/s)
/
Latitude / Longitude
Inclination (degrees)
Orbital Period (minutes)
Azimuth
Elevation
Range (km)
Doppler Factor

Next 0 passes for location: London (51.5072 / 0.1276)

Sorry there are no passes over London.